Location: Prague
(50.0830°N, 14.4670°E)
Time: 09:00:24
(UTC+01:00)

XW-2F - Pass Details

Date: 01 December 2021
Orbit: 494 x 515 km, 97.5° (Epoch: 18 January)

Event Time Altitude Azimuth Distance (km) Brightness Sun altitude
Rises 18:03:01 0° 194° (SSW) 2,597 ? -18.5°
Reaches altitude 10° 18:05:19 10° 207° (SSW) 1,723 ? -18.8°
Maximum altitude 18:08:29 26° 265° (W) 1,032 ? -19.3°
Drops below altitude 10° 18:11:44 10° 324° (NW) 1,760 ? -19.8°
Sets 18:14:04 0° 337° (NNW) 2,644 ? -20.2°
